Regional Weather Roundup
Issued by NWS

Home | Current Version | Previous Version | Text Only | Print | Product List | Glossary Off
Versions: 1 2 3 4 5 6 7 8 9 10 11 12 13 14 15 16 17 18 19 20 21 22 23 24 25 26 27 28 29 30 31 32 33 34 35 36 37 38 39 40 41 42 43 44 45 46 47 48 49 50

000
ASUS43 KTOP 020659
RWRKS

WEATHER ROUNDUP FOR KANSAS
NATIONAL WEATHER SERVICE GOODLAND KS
200 AM CDT MON MAY 02 2016

NOTE:  "FAIR" INDICATES FEW OR NO CLOUDS BELOW 12,000 FEET WITH NO
SIGNIFICANT WEATHER AND/OR OBSTRUCTIONS TO VISIBILITY.

KSZ001>006-013>018-027>032-041>047-020800-
NORTHWEST KANSAS

CITY           SKY/WX    TMP DP  RH WIND       PRES   REMARKS
GOODLAND       CLEAR     30  27  88 NW7       30.25F
HAYS           CLOUDY    43  34  70 NW6       30.23S
HILL CITY      MOCLDY    38  36  92 W7        30.25S
RUSSELL        CLOUDY    45  41  86 NW7       30.21S
$$

KSZ061>065-074>080-084>089-020800-
SOUTHWEST KANSAS

CITY           SKY/WX    TMP DP  RH WIND       PRES   REMARKS
DODGE CITY     CLOUDY    38  36  92 NW7       30.24S
ELKHART          N/A     42  38  86 NW7         N/A
GARDEN CITY    CLOUDY    43  40  89 NW6       30.24F
GREAT BEND     CLOUDY    45  37  76 NW5       30.22F
LIBERAL        PTCLDY    39  36  87 W6        30.25F
$$

KSZ066>073-081>083-090>101-020800-
SOUTHEAST KANSAS

CITY           SKY/WX    TMP DP  RH WIND       PRES   REMARKS
CHANUTE        CLOUDY    51  44  77 N10       30.14S
COFFEYVILLE    CLOUDY    53  46  77 N9        30.14S
HUTCHINSON     CLOUDY    47  42  83 NW9       30.19F
MEDICINE LODGE   N/A     47  43  86 NW6       30.20F
NEWTON         CLOUDY    45  37  76 N8        30.19S
PARSONS        CLOUDY    52  46  80 N8        30.14F
WICHITA INTL   CLOUDY    48  42  80 N10       30.18S
WICHITA JABRA  CLOUDY    47  42  83 N9        30.17F
WINFIELD       CLOUDY    49  43  80 N10       30.18S
$$

KSZ007>012-019>026-033>040-048>060-102>105-020800-
NORTHEAST KANSAS

CITY           SKY/WX    TMP DP  RH WIND       PRES   REMARKS
CONCORDIA      CLOUDY    46  43  89 W6        30.19F
EMPORIA        CLOUDY    48  43  82 NW8       30.16F
LAWRENCE       CLOUDY    49  44  83 NW7       30.16S
MANHATTAN      CLOUDY    49  42  77 NW3       30.18F
OLATHE IND     CLOUDY    48  44  86 NW7       30.16S
OLATHE EXE     CLOUDY    48  43  82 W7        30.15R
SALINA         CLOUDY    49  44  83 NW8       30.20F
TOPEKA BILLARD CLOUDY    49  43  80 NW5       30.16F
TOPEKA FORBES  CLOUDY    50  43  77 N9        30.15F
$$



USA.gov is the U.S. government's official web portal to all federal, state and local government web resources and services.